SCP
0 0 0 0 0 0 0 0 0 0 0 0 0 0 0 0 0 0 0 0 0 0 0 0 0 0 0 0 0 0 0 0 0 0 0 0 0 0 0 0 0 0 0
0 0 0 0 0 0 0 0 0 0 0 0 0 0 0 0 0 0 0 0 0 0 0 0 0 0 0 0 0 0 0 0 0 0 0 0 0 0 0 0 0 0 0
0 0 0 0 0 0 0 0 0 0 0 0 0 0 0 0 0 0 0 0 0 0 0 0 0 0 0 0 0 0 0 0 0 0 0 0 0 0 0 0 0 0 0
0 0 0 0 0 0 0 0 0 0 0 0 0 0 0 0 0 0 0 0 0 0 0 0 0 0 0 0 0 0 0 0 0 0 0 0 0 0 0 0 0 0 0
0 0 0 0 0 0 0 0 0 0 0 0 0 0 0 0 0 0 0 0 0 0 0 0 0 0 0 0 0 0 0 0 0 0 0 0 0 0 0 0 0 0 0
0 0 0 0 0 0 0 0 0 0 0 0 0 0 0 0 0 0 0 0 0 0 0 0 0 0 0 0 0 0 0 0 0 0 0 0 0 0 0 0 0 0 0
0 0 0 0 -0 -0 -0 -0 -0 0 0 0 0 0 0 0 0 0 0 0 0 0 0 0 0 0 0 0 0 0 0 0 0 0 0 0 0 0 0 0 0 0 0
0 -0 -0 -0 -0 -0 0 -0 0 0 0 0 0 0 0 0 0 0 0 0 0 0 0 0 0 0 0 0 0 0 0 0 0 0 0 0 0 0 0 0 0 0 0
0 0 -0 -0 -0 0 0 0 0 0 0 0 0 0 0 0 0 0 0 0 0 0 0 0 0 0 0 0 0 0 0 0 0 0 0 0 0 0 0 0 0 0 0
-0 0 -0 -0 -0 -0 -0 0 -0 0 0 0 0 0 0 0 0 0 0 0 0 0 0 0 0 0 0 0 0 0 0 0 0 0 0 0 0 0 0 0 0 0 0
0 0 0 0 0 0 0 0 0 0 0 0 0 0 0 0 0 0 0 0 0 0 0 0 0 0 0 0 0 0 0 0 0 0 0 0 0 0 0 0 0 0 0
0 0 0 0 0 0 0 0 0 0 0 0 0 0 0 0 0 0 0 0 0 0 0 0 0 0 0 0 0 0 0 0 0 0 0 0 0 0 0 0 0 0 0
0 0 0 0 0 0 0 0 0 0 0 0 0 0 0 0 0 0 0 0 0 0 0 0 0 0 0 0 0 0 0 0 0 0 0 0 0 0 0 0 0 0 0
0 0 0 0 0 0 0 0 0 0 0 0 0 0 0 0 0 0 0 0 0 0 0 0 0 0 0 0 0 0 0 0 0 0 0 0 0 0 0 0 0 0 0
0 0 0 0 0 0 0 0 0 0 0 0 0 0 0 0 0 0 0 0 0 0 0 0 0 0 0 0 0 0 0 0 0 0 0 0 0 0 0 0 0 0 0
0 0 0 0 0 0 0 0 0 0 0 0 0 0 0 0 0 0 0 0 0 0 0 0 0 0 0 0 0 0 0 0 0 0 0 0 0 0 0 0 0 0 0
0 0 0 0 0 0 0 0 0 0 0 0 0 0 0 0 0 0 0 0 0 0 0 0 0 0 0 0 0 0 0 0 0 0 0 0 0 0 0 0 0 0 0
0 0 0 0 0 0 0 0 0 0 0 0 0 0 0 0 0 0 0 0 0 0 0 0 0 0 0 0 0 0 0 0 0 0 0 0 0 0 0 0 0 0 0
0 0 0 0 0 0 0 0 0 0 0 0 0 0 0 0 0 0 0 0 0 0 0 0 0 0 0 0 0 0 0 0 0 0 0 0 0 0 0 0 0 0 0
0 0 0 0 0 0 0 0 0 0 0 0 0 0 0 0 0 0 0 0 0 0 0 0 0 0 0 0 0 0 0 0 0 0 0 0 0 0 0 0 0 0 0
0 0 0 0 0 0 0 0 0 0 0 0 0 0 0 0 0 0 0 0 0 0 0 0 0 0 0 0 0 0 0 0 0 0 0 0 0 0 0 0 0 0 0
0 0 0 0 0 0 0 0 0 0 0 0 0 0 0 0 0 0 0 0 0 0 0 0 0 0 0 0 0 0 0 0 0 0 0 0 0 0 0 0 0 0 0
0 0 0 0 0 0 0 0 0 0 0 0 0 0 0 0 0 0 0 0 0 0 0 0 0 0 0 0 0 0 0 0 0 0 0 0 0 0 0 0 0 0 0
0 0 0 0 0 0 0 0 0 0 0 0 0 0 0 0 0 0 0 0 0 0 0 0 0 0 0 0 0 0 0 0 0 0 0 0 0 0 0 0 0 0 0
0 0 0 0 0 0 0 0 0 0 0 0 0 0 0 0 0 0 0 0 0 0 0 0 0 0 0 0 0 0 0 0 0 0 0 0 0 0 0 0 0 0 0
0 0 0 0 0 0 0 0 0 0 0 0 0 0 0 0 0 0 0 0 0 0 0 0 0 0 0 0 0 0 0 0 0 0 0 0 0 0 0 0 0 0 0
Wind_Speed_500mb
12 9 8 10 13 16 19 22 28 32 37 43 45 48 52 56 59 65 70 76 79 81 81 80 80 75 72 83 82 81 85 81 90 87 91 88 80 77 74 67 62 73 83
8 7 12 17 22 25 29 33 36 38 41 43 48 52 55 56 58 61 65 69 71 73 74 75 76 72 75 72 75 80 77 76 80 87 88 84 81 73 68 64 61 61 73
16 19 24 29 33 37 41 45 47 50 52 54 58 60 62 63 63 63 65 64 65 67 68 71 72 72 73 71 74 75 75 76 72 77 82 80 76 70 66 56 54 54 63
27 28 30 33 37 42 46 50 54 57 59 61 64 66 66 65 65 65 65 66 67 68 69 70 70 68 66 67 71 71 69 72 74 73 76 74 72 67 58 53 57 57 55
32 34 37 38 42 46 49 50 52 56 61 64 67 66 64 64 62 63 64 66 69 71 71 71 69 64 64 65 68 70 71 70 70 68 72 71 70 66 65 60 55 46 45
36 38 40 42 44 46 48 50 50 51 52 56 59 60 59 58 56 61 64 66 68 70 72 69 64 63 64 64 67 70 72 67 70 66 68 70 69 65 59 51 50 50 49
42 44 46 47 49 50 52 54 53 51 51 50 51 55 60 60 60 61 62 67 67 67 66 62 60 62 63 63 67 69 69 66 64 61 62 60 59 56 52 47 46 44 44
47 50 53 54 54 53 54 56 56 56 53 51 50 52 56 55 58 62 62 65 67 64 61 58 62 62 60 65 68 67 66 62 55 58 51 45 37 38 40 42 40 41 45
55 57 59 62 62 62 60 58 58 59 56 55 53 49 52 51 53 55 57 61 64 62 56 57 61 64 59 64 68 63 60 55 48 42 34 27 30 39 43 41 42 45 38
54 56 58 61 64 66 65 64 61 61 61 59 55 55 54 51 48 51 51 55 62 60 56 57 59 63 61 59 59 56 51 47 42 37 38 48 43 40 27 30 32 38 35
49 51 53 55 58 60 62 62 64 61 60 62 63 59 57 56 53 51 47 51 56 57 55 57 57 59 56 48 47 47 46 40 39 42 43 40 38 31 33 33 31 29 28
44 47 49 52 56 61 65 63 61 62 61 61 62 63 62 59 57 52 46 44 51 53 51 52 50 48 43 36 38 35 33 34 45 48 42 46 34 39 36 30 26 27 24
48 52 55 57 57 60 65 64 62 61 63 62 61 61 60 55 51 44 41 40 45 45 38 36 36 35 31 27 31 26 28 34 46 46 51 41 35 36 30 24 28 30 27
56 58 59 60 60 60 58 59 59 57 58 58 57 56 55 52 48 44 39 37 32 27 27 26 28 25 21 27 28 24 28 30 35 41 39 32 25 33 29 22 22 28 31
62 61 61 61 60 61 58 56 53 47 45 45 42 41 39 33 30 27 25 20 14 16 18 20 19 13 16 17 22 18 19 27 25 23 20 24 28 20 16 18 22 27 36
67 64 62 61 56 54 52 47 39 33 26 24 20 21 19 20 23 20 12 3 6 8 9 12 6 9 14 12 20 18 14 13 16 24 23 19 20 20 22 26 31 34 36
65 65 63 57 51 46 41 37 29 21 17 13 11 16 15 16 19 16 8 9 4 3 4 3 5 6 7 13 9 15 17 16 16 19 17 22 27 27 27 31 33 34 37
61 61 60 54 44 37 32 24 19 17 16 16 13 11 9 12 13 11 8 11 10 2 9 11 12 11 10 8 5 5 5 8 15 20 21 23 25 29 30 31 33 37 37
56 55 51 46 34 28 25 23 21 20 19 18 17 13 12 10 8 7 2 7 11 7 7 5 3 2 2 3 7 9 12 17 21 23 24 25 25 29 34 37 37 37 39
50 48 42 34 29 22 22 21 20 21 23 25 23 19 17 17 17 13 8 6 10 13 11 10 9 10 12 13 15 16 17 20 22 25 28 31 33 35 36 38 40 41 41
43 38 35 32 29 24 25 26 25 27 29 29 26 25 19 17 14 13 12 10 10 11 12 13 14 14 16 18 20 21 24 26 28 31 34 36 38 39 40 40 41 41 42
38 34 31 32 32 31 30 32 32 31 32 32 29 25 21 16 13 12 12 12 12 13 14 16 18 20 22 25 28 30 32 34 35 37 38 39 41 42 42 41 41 41 41
33 31 30 31 35 37 37 36 36 35 33 31 26 21 17 14 11 12 12 14 15 17 19 22 25 28 31 34 36 37 38 39 41 42 42 41 41 40 39 38 38 38 38
27 26 26 27 27 28 29 28 28 30 29 28 25 21 17 15 13 16 17 19 21 24 26 29 33 35 37 39 39 39 39 39 39 38 38 37 37 38 37 36 37 37 36
21 20 20 21 22 23 23 24 24 24 24 23 22 21 18 15 17 22 24 26 28 31 33 36 39 40 40 39 37 35 33 32 32 34 35 35 35 36 36 36 36 36 37
18 18 18 18 18 19 20 21 21 22 22 22 21 20 20 21 24 28 31 35 38 40 40 40 39 37 34 31 29 29 30 31 33 34 35 35 34 35 37 38 39 38 38
Wind_Direction_500mb
67 43 10 331 307 299 295 288 282 280 277 272 269 266 264 262 261 261 262 265 267 270 271 272 271 273 271 273 271 274 278 274 273 277 279 280 279 278 281 280 267 257 242
23 350 329 319 312 309 304 297 292 291 288 287 283 278 274 272 269 267 267 266 265 267 271 272 273 272 268 268 270 269 272 275 272 278 278 279 279 281 279 274 266 255 239
310 297 289 288 288 288 290 290 290 290 290 290 290 288 285 281 277 274 271 268 268 270 271 272 272 270 269 267 269 270 271 274 272 275 275 277 277 275 272 262 249 240 234
328 321 311 303 296 292 289 288 287 285 285 286 286 286 284 282 278 276 274 273 273 274 274 274 273 271 268 269 269 271 273 274 273 271 270 271 270 269 264 250 242 239 233
329 324 318 311 306 301 298 295 292 290 288 287 286 286 284 281 280 279 276 276 275 275 274 273 272 271 268 266 266 267 268 269 268 267 266 265 262 259 255 249 238 237 231
335 329 325 323 317 313 309 303 297 291 288 288 288 287 285 285 283 279 277 276 275 275 276 276 274 269 267 267 269 269 268 266 265 264 264 263 263 258 252 237 233 213 215
338 336 333 329 327 323 320 317 313 307 301 296 290 287 285 284 282 280 279 277 276 276 277 277 274 271 270 269 270 269 268 267 264 265 263 261 261 257 243 228 217 214 222
331 329 328 329 329 327 322 319 317 314 310 305 299 292 287 285 281 279 277 276 277 276 277 274 274 274 274 271 269 267 266 264 261 259 260 263 261 249 228 217 213 206 211
326 325 325 325 326 326 326 324 321 317 315 312 308 301 296 294 287 283 280 278 279 279 277 275 273 272 272 271 269 263 260 255 251 248 243 221 197 198 200 197 200 206 222
319 319 319 319 319 318 319 318 318 317 317 314 312 309 303 298 291 287 283 281 281 282 280 276 274 275 274 270 265 260 253 247 241 230 211 195 196 186 201 220 226 209 200
315 315 314 313 311 309 308 309 310 311 312 313 311 309 305 302 299 292 287 284 284 284 280 276 274 273 272 269 261 253 249 243 228 217 213 205 185 192 191 180 185 197 202
315 316 317 317 316 312 309 306 304 305 306 308 308 309 309 306 304 300 295 284 282 281 281 279 278 274 269 257 239 243 234 233 216 206 197 181 191 184 179 182 191 202 218
310 312 313 313 314 313 312 311 306 304 303 304 305 304 304 304 304 297 288 280 275 277 277 279 281 273 253 230 223 232 235 225 214 205 186 188 200 191 184 189 201 214 235
306 308 309 309 309 310 310 310 310 311 309 307 306 307 306 305 303 298 290 285 278 263 274 281 292 278 246 224 216 221 213 216 211 198 191 203 225 201 194 205 212 230 254
301 303 304 305 306 307 307 308 308 309 310 311 313 315 314 317 315 314 305 289 273 261 274 295 295 252 195 195 198 201 210 203 206 199 219 224 187 198 220 239 258 270 270
299 300 303 302 303 303 303 304 306 309 310 313 325 333 333 329 335 332 327 240 208 248 292 321 286 203 191 204 204 203 215 189 211 216 222 215 234 244 256 265 266 270 274
295 298 300 301 302 300 301 303 305 303 301 309 320 342 346 342 347 354 21 132 142 231 311 37 73 93 188 219 217 205 216 218 212 215 232 244 259 263 263 268 274 280 285
295 295 297 299 301 299 296 290 278 277 275 280 290 320 339 342 351 7 47 146 180 34 78 76 81 94 93 85 101 134 167 203 227 238 244 251 257 266 273 278 284 288 285
289 292 293 292 288 284 277 268 266 257 263 271 279 285 299 315 324 315 217 199 203 229 258 293 317 311 280 257 263 260 258 259 258 260 265 268 272 277 283 288 291 290 289
289 290 288 278 269 265 264 245 250 246 253 259 267 283 299 298 285 268 250 249 243 248 254 260 263 264 264 264 262 263 270 275 279 282 283 285 288 291 293 293 291 290 289
285 283 278 265 257 249 251 248 251 253 254 259 268 280 286 283 273 262 260 254 250 250 255 265 267 272 275 279 285 290 294 294 294 293 292 291 290 290 290 290 290 290 287
289 286 276 261 255 253 253 253 251 248 250 255 262 274 280 274 264 259 255 257 260 265 271 278 284 290 293 295 297 297 295 293 293 293 293 293 293 291 290 290 290 290 290
290 288 281 271 261 257 254 252 249 246 245 248 253 257 259 259 261 256 253 260 269 276 282 286 288 289 290 290 291 293 295 296 294 292 291 290 290 290 291 292 292 290 289
290 287 283 276 268 262 259 256 251 248 245 244 245 247 246 244 253 268 271 275 278 281 284 286 286 288 289 290 290 290 291 292 293 295 296 295 294 293 291 289 288 289 288
291 287 281 275 268 263 259 255 251 247 244 241 238 236 238 248 263 270 275 280 283 286 289 291 291 292 292 293 296 298 299 301 300 300 300 299 297 294 291 289 287 286 286
289 281 273 267 262 258 254 251 247 243 241 242 244 247 250 258 270 279 284 287 288 290 290 290 290 290 290 293 294 295 297 297 297 298 297 297 295 291 288 286 284 283 281
Wind_Speed_850mb
12 9 8 10 13 16 19 22 28 32 37 43 45 48 52 56 59 65 70 76 79 81 81 80 80 75 72 83 82 81 85 81 90 87 91 88 80 77 74 67 62 73 83
8 7 12 17 22 25 29 33 36 38 41 43 48 52 55 56 58 61 65 69 71 73 74 75 76 72 75 72 75 80 77 76 80 87 88 84 81 73 68 64 61 61 73
16 19 24 29 33 37 41 45 47 50 52 54 58 60 62 63 63 63 65 64 65 67 68 71 72 72 73 71 74 75 75 76 72 77 82 80 76 70 66 56 54 54 63
27 28 30 33 37 42 46 50 54 57 59 61 64 66 66 65 65 65 65 66 67 68 69 70 70 68 66 67 71 71 69 72 74 73 76 74 72 67 58 53 57 57 55
32 34 37 38 42 46 49 50 52 56 61 64 67 66 64 64 62 63 64 66 69 71 71 71 69 64 64 65 68 70 71 70 70 68 72 71 70 66 65 60 55 46 45
36 38 40 42 44 46 48 50 50 51 52 56 59 60 59 58 56 61 64 66 68 70 72 69 64 63 64 64 67 70 72 67 70 66 68 70 69 65 59 51 50 50 49
42 44 46 47 49 50 52 54 53 51 51 50 51 55 60 60 60 61 62 67 67 67 66 62 60 62 63 63 67 69 69 66 64 61 62 60 59 56 52 47 46 44 44
47 50 53 54 54 53 54 56 56 56 53 51 50 52 56 55 58 62 62 65 67 64 61 58 62 62 60 65 68 67 66 62 55 58 51 45 37 38 40 42 40 41 45
55 57 59 62 62 62 60 58 58 59 56 55 53 49 52 51 53 55 57 61 64 62 56 57 61 64 59 64 68 63 60 55 48 42 34 27 30 39 43 41 42 45 38
54 56 58 61 64 66 65 64 61 61 61 59 55 55 54 51 48 51 51 55 62 60 56 57 59 63 61 59 59 56 51 47 42 37 38 48 43 40 27 30 32 38 35
49 51 53 55 58 60 62 62 64 61 60 62 63 59 57 56 53 51 47 51 56 57 55 57 57 59 56 48 47 47 46 40 39 42 43 40 38 31 33 33 31 29 28
44 47 49 52 56 61 65 63 61 62 61 61 62 63 62 59 57 52 46 44 51 53 51 52 50 48 43 36 38 35 33 34 45 48 42 46 34 39 36 30 26 27 24
48 52 55 57 57 60 65 64 62 61 63 62 61 61 60 55 51 44 41 40 45 45 38 36 36 35 31 27 31 26 28 34 46 46 51 41 35 36 30 24 28 30 27
56 58 59 60 60 60 58 59 59 57 58 58 57 56 55 52 48 44 39 37 32 27 27 26 28 25 21 27 28 24 28 30 35 41 39 32 25 33 29 22 22 28 31
62 61 61 61 60 61 58 56 53 47 45 45 42 41 39 33 30 27 25 20 14 16 18 20 19 13 16 17 22 18 19 27 25 23 20 24 28 20 16 18 22 27 36
67 64 62 61 56 54 52 47 39 33 26 24 20 21 19 20 23 20 12 3 6 8 9 12 6 9 14 12 20 18 14 13 16 24 23 19 20 20 22 26 31 34 36
65 65 63 57 51 46 41 37 29 21 17 13 11 16 15 16 19 16 8 9 4 3 4 3 5 6 7 13 9 15 17 16 16 19 17 22 27 27 27 31 33 34 37
61 61 60 54 44 37 32 24 19 17 16 16 13 11 9 12 13 11 8 11 10 2 9 11 12 11 10 8 5 5 5 8 15 20 21 23 25 29 30 31 33 37 37
56 55 51 46 34 28 25 23 21 20 19 18 17 13 12 10 8 7 2 7 11 7 7 5 3 2 2 3 7 9 12 17 21 23 24 25 25 29 34 37 37 37 39
50 48 42 34 29 22 22 21 20 21 23 25 23 19 17 17 17 13 8 6 10 13 11 10 9 10 12 13 15 16 17 20 22 25 28 31 33 35 36 38 40 41 41
43 38 35 32 29 24 25 26 25 27 29 29 26 25 19 17 14 13 12 10 10 11 12 13 14 14 16 18 20 21 24 26 28 31 34 36 38 39 40 40 41 41 42
38 34 31 32 32 31 30 32 32 31 32 32 29 25 21 16 13 12 12 12 12 13 14 16 18 20 22 25 28 30 32 34 35 37 38 39 41 42 42 41 41 41 41
33 31 30 31 35 37 37 36 36 35 33 31 26 21 17 14 11 12 12 14 15 17 19 22 25 28 31 34 36 37 38 39 41 42 42 41 41 40 39 38 38 38 38
27 26 26 27 27 28 29 28 28 30 29 28 25 21 17 15 13 16 17 19 21 24 26 29 33 35 37 39 39 39 39 39 39 38 38 37 37 38 37 36 37 37 36
21 20 20 21 22 23 23 24 24 24 24 23 22 21 18 15 17 22 24 26 28 31 33 36 39 40 40 39 37 35 33 32 32 34 35 35 35 36 36 36 36 36 37
18 18 18 18 18 19 20 21 21 22 22 22 21 20 20 21 24 28 31 35 38 40 40 40 39 37 34 31 29 29 30 31 33 34 35 35 34 35 37 38 39 38 38
Wind_Direction_850mb
67 43 10 331 307 299 295 288 282 280 277 272 269 266 264 262 261 261 262 265 267 270 271 272 271 273 271 273 271 274 278 274 273 277 279 280 279 278 281 280 267 257 242
23 350 329 319 312 309 304 297 292 291 288 287 283 278 274 272 269 267 267 266 265 267 271 272 273 272 268 268 270 269 272 275 272 278 278 279 279 281 279 274 266 255 239
310 297 289 288 288 288 290 290 290 290 290 290 290 288 285 281 277 274 271 268 268 270 271 272 272 270 269 267 269 270 271 274 272 275 275 277 277 275 272 262 249 240 234
328 321 311 303 296 292 289 288 287 285 285 286 286 286 284 282 278 276 274 273 273 274 274 274 273 271 268 269 269 271 273 274 273 271 270 271 270 269 264 250 242 239 233
329 324 318 311 306 301 298 295 292 290 288 287 286 286 284 281 280 279 276 276 275 275 274 273 272 271 268 266 266 267 268 269 268 267 266 265 262 259 255 249 238 237 231
335 329 325 323 317 313 309 303 297 291 288 288 288 287 285 285 283 279 277 276 275 275 276 276 274 269 267 267 269 269 268 266 265 264 264 263 263 258 252 237 233 213 215
338 336 333 329 327 323 320 317 313 307 301 296 290 287 285 284 282 280 279 277 276 276 277 277 274 271 270 269 270 269 268 267 264 265 263 261 261 257 243 228 217 214 222
331 329 328 329 329 327 322 319 317 314 310 305 299 292 287 285 281 279 277 276 277 276 277 274 274 274 274 271 269 267 266 264 261 259 260 263 261 249 228 217 213 206 211
326 325 325 325 326 326 326 324 321 317 315 312 308 301 296 294 287 283 280 278 279 279 277 275 273 272 272 271 269 263 260 255 251 248 243 221 197 198 200 197 200 206 222
319 319 319 319 319 318 319 318 318 317 317 314 312 309 303 298 291 287 283 281 281 282 280 276 274 275 274 270 265 260 253 247 241 230 211 195 196 186 201 220 226 209 200
315 315 314 313 311 309 308 309 310 311 312 313 311 309 305 302 299 292 287 284 284 284 280 276 274 273 272 269 261 253 249 243 228 217 213 205 185 192 191 180 185 197 202
315 316 317 317 316 312 309 306 304 305 306 308 308 309 309 306 304 300 295 284 282 281 281 279 278 274 269 257 239 243 234 233 216 206 197 181 191 184 179 182 191 202 218
310 312 313 313 314 313 312 311 306 304 303 304 305 304 304 304 304 297 288 280 275 277 277 279 281 273 253 230 223 232 235 225 214 205 186 188 200 191 184 189 201 214 235
306 308 309 309 309 310 310 310 310 311 309 307 306 307 306 305 303 298 290 285 278 263 274 281 292 278 246 224 216 221 213 216 211 198 191 203 225 201 194 205 212 230 254
301 303 304 305 306 307 307 308 308 309 310 311 313 315 314 317 315 314 305 289 273 261 274 295 295 252 195 195 198 201 210 203 206 199 219 224 187 198 220 239 258 270 270
299 300 303 302 303 303 303 304 306 309 310 313 325 333 333 329 335 332 327 240 208 248 292 321 286 203 191 204 204 203 215 189 211 216 222 215 234 244 256 265 266 270 274
295 298 300 301 302 300 301 303 305 303 301 309 320 342 346 342 347 354 21 132 142 231 311 37 73 93 188 219 217 205 216 218 212 215 232 244 259 263 263 268 274 280 285
295 295 297 299 301 299 296 290 278 277 275 280 290 320 339 342 351 7 47 146 180 34 78 76 81 94 93 85 101 134 167 203 227 238 244 251 257 266 273 278 284 288 285
289 292 293 292 288 284 277 268 266 257 263 271 279 285 299 315 324 315 217 199 203 229 258 293 317 311 280 257 263 260 258 259 258 260 265 268 272 277 283 288 291 290 289
289 290 288 278 269 265 264 245 250 246 253 259 267 283 299 298 285 268 250 249 243 248 254 260 263 264 264 264 262 263 270 275 279 282 283 285 288 291 293 293 291 290 289
285 283 278 265 257 249 251 248 251 253 254 259 268 280 286 283 273 262 260 254 250 250 255 265 267 272 275 279 285 290 294 294 294 293 292 291 290 290 290 290 290 290 287
289 286 276 261 255 253 253 253 251 248 250 255 262 274 280 274 264 259 255 257 260 265 271 278 284 290 293 295 297 297 295 293 293 293 293 293 293 291 290 290 290 290 290
290 288 281 271 261 257 254 252 249 246 245 248 253 257 259 259 261 256 253 260 269 276 282 286 288 289 290 290 291 293 295 296 294 292 291 290 290 290 291 292 292 290 289
290 287 283 276 268 262 259 256 251 248 245 244 245 247 246 244 253 268 271 275 278 281 284 286 286 288 289 290 290 290 291 292 293 295 296 295 294 293 291 289 288 289 288
291 287 281 275 268 263 259 255 251 247 244 241 238 236 238 248 263 270 275 280 283 286 289 291 291 292 292 293 296 298 299 301 300 300 300 299 297 294 291 289 287 286 286
289 281 273 267 262 258 254 251 247 243 241 242 244 247 250 258 270 279 284 287 288 290 290 290 290 290 290 293 294 295 297 297 297 298 297 297 295 291 288 286 284 283 281